Location: Unspecified
(43.3830°N, 0.0000°E)
Time: 20:21:31
(UTC+00:00)

Explorer 7 - Pass Details

Date: 02 July 2019
Orbit: 485 x 680 km, 50.3° (Epoch: 16 July)

Event Time Altitude Azimuth Distance (km) Brightness Sun altitude
Rises 11:11:11 0° 296° (WNW) 2,850 10.3 66.9°
Reaches altitude 10° 11:13:29 10° 291° (WNW) 1,976 9.6 67.1°
Maximum altitude 11:17:50 46° 218° (SW) 861 8.8 67.5°
Drops below altitude 10° 11:22:24 10° 146° (SE) 2,066 10.3 67.9°
Sets 11:24:51 0° 140° (SE) 2,995 10.9 68.1°
